Regional Weather Roundup
Issued by NWS

Home | Current Version | Previous Version | Text Only | Print | Product List | Glossary On
Versions: 1 2 3 4 5 6 7 8 9 10 11 12 13 14 15 16 17 18 19 20 21 22 23 24 25 26 27 28 29 30 31 32 33 34 35 36 37 38 39 40 41 42 43 44 45 46 47 48 49 50
000
ASUS43 KMKX 230521
RWRWI

WISCONSIN REGIONAL WEATHER ROUNDUP
NATIONAL WEATHER SERVICE MILWAUKEE/SULLIVAN WI
1100 PM CST MON DEC 22 2014

NOTE: "FAIR" INDICATES FEW OR NO CLOUDS BELOW 12,000 FEET WITH NO
SIGNIFICANT WEATHER AND/OR OBSTRUCTIONS TO VISIBILITY.

WIZ001-002-006>008-014>016-023>028-230600-
NORTHWEST WISCONSIN

CITY           SKY/WX    TMP DP  RH WIND       PRES   REMARKS
SUPERIOR ARPT  CLOUDY    36  34  94 E10       29.75S WCI  28
ASHLAND        CLOUDY    34  32  92 NE7       29.76S WCI  28
HAYWARD        LGT SNOW  34  30  85 E5        29.71R FOG     WCI  30
SIREN          CLOUDY    34  32  92 E5        29.69S WCI  30
CUMBERLAND     LGT SNOW  32  32 100 E9        29.67R WCI  24
RICE LAKE      CLOUDY    34  32  92 E10       29.69S FOG     WCI  26
CHETEK         MIX PCPN  33  32  96 NE6       29.67S WCI  27
LADYSMITH      LGT SNOW  33  32  94 E9        29.70S WCI  26
EAU CLAIRE     LGT SNOW  33  31  92 NE13      29.64S FOG     WCI  24
MENOMONIE      LGT SNOW  34  33  94 NE13G18   29.65S WCI  25
NEW RICHMOND   CLOUDY    34  33  98 E9        29.65R FOG     WCI  26
OSCEOLA        CLOUDY    36  35  96 E10       29.68S WCI  28
$$

WIZ003>005-009-010-017-018-230600-
NORTH CENTRAL WISCONSIN

CITY           SKY/WX    TMP DP  RH WIND       PRES   REMARKS
MANITOWISH WTR LGT SNOW  31  31 100 E7        29.73R WCI  24
ARBOR VITAE    LGT SNOW  32  30  92 E6        29.72S WCI  26
WOODRUFF       LGT SNOW  32  30  92 E6        29.72S WCI  26
RHINELANDER    LGT SNOW  30  29  96 E10       29.72S FOG     WCI  21
EAGLE RIVER    LGT SNOW  31  30  96 E9        29.73S WCI  23
LAND O LAKES   LGT SNOW  31  30  96 E7        29.75S WCI  24
PHILLIPS       LGT SNOW  31  30  94 E8        29.70S WCI  24
TOMAHAWK       LGT SNOW  31  29  94 E3        29.71S
MEDFORD        LGT SNOW  31  30  95 E13       29.66S WCI  22
MERRILL        LGT SNOW  32  32  99 E8        29.69F WCI  25
$$

WIZ029-030-035-036-043>047-230600-
CENTRAL WISCONSIN

CITY           SKY/WX    TMP DP  RH WIND       PRES   REMARKS
WAUSAU         LGT SNOW  32  31  96 E14       29.67S FOG     WCI  22
MOSINEE        LGT SNOW  32  32 100 E12       29.68S WCI  23
MARSHFIELD     LGT SNOW  33  31  92 E15       29.64F FOG     WCI  23
STEVENS POINT  MIX PCPN  31  31  98 E12       29.67F WCI  22
WAUPACA        LGT RAIN  35  34  96 NE5       29.68F WCI  31
WAUTOMA        CLOUDY    35  35 100 NE7       29.65F FOG     WCI  29
WISC RAPIDS    CLOUDY    34  31  88 E12       29.66F WCI  25
CAMP DOUGLAS   CLOUDY    34  34 100 E9        29.61F FOG     WCI  26
$$

WIZ011>013-019>022-031-037>040-048>050-230600-
NORTHEAST WISCONSIN

CITY           SKY/WX    TMP DP  RH WIND       PRES   REMARKS
ANTIGO         LGT SNOW  31  30  96 E15       29.70F WCI  20
SHAWANO        DRIZZLE   34  33  94 NE9       29.73S WCI  27
OCONTO         CLOUDY    33  33 100 E7        29.76S WCI  27
STURGEON BAY   CLOUDY    36  32  87 E12       29.76F WCI  27
GREEN BAY      MIX PCPN  36  34  92 E12       29.72F FOG     WCI  28
MANITOWOC      LGT RAIN  38  37  97 SE14      29.72S WCI  30
APPLETON       DRIZZLE   34  34 100 E8        29.68F WCI  27
CLINTONVILLE   MIX PCPN  32  32 100 E7        29.71S WCI  26
OSHKOSH        CLOUDY    37  35  92 E7        29.66F FOG     WCI  32
$$

WIZ032>034-041-042-053>061-230600-
SOUTHWEST WISCONSIN

CITY           SKY/WX    TMP DP  RH WIND       PRES   REMARKS
LA CROSSE      CLOUDY    37  34  89 E9        29.59S WCI  30
SPARTA         CLOUDY    34  34  99 E7        29.62S FOG     WCI  28
VIROQUA        CLOUDY    33  33 100 E12       29.56F WCI  25
BOSCOBEL       LGT RAIN  37  35  92 NE6       29.57F FOG     WCI  32
PRAIRIE DU CHI DRIZZLE   37  35  93 E5        29.55S WCI  33
PLATTEVILLE    CLOUDY    37  36  97 NE10      29.54F WCI  29
$$

WIZ056-057-062-063-064-067-068-230600-
SOUTH CENTRAL WISCONSIN

CITY           SKY/WX    TMP DP  RH WIND       PRES   REMARKS
REEDSBURG      DRIZZLE   35  34  99 E5        29.59F WCI  30
BARABOO/DELLS  DRZL/FOG  35  34  97 E7        29.60S VSB 1   WCI  29
LONE ROCK      LGT RAIN  40  35  83 E10       29.58F WCI  33
MINERAL POINT  CLOUDY    37  36  93 E8        29.54F FOG     WCI  31
MADISON        CLOUDY    38  37  97 E10       29.59S FOG     WCI  31
MIDDLETON      CLOUDY    39  39 100 E5        29.59F
WATERTOWN      CLOUDY    38  38 100 E10G17    29.61S FOG     WCI  31
MONROE         RAIN      37  37 100 E7        29.55F VSB 1/4 WCI  32
JANESVILLE     CLOUDY    37  37 100 E9        29.58S FOG     WCI  31
$$

WIZ051-052-058>065-066-070>072-230600-
SOUTHEAST WISCONSIN

CITY           SKY/WX    TMP DP  RH WIND       PRES   REMARKS
MILWAUKEE      LGT RAIN  39  37  92 SE16      29.65F FOG     WCI  30
WAUKESHA       LGT RAIN  36  36 100 E12       29.64S WCI  27
MILWAUKEE/TIMM RAIN      37  36  93 SE13G21   29.66F WCI  29
RACINE         LGT RAIN  40  38  93 SE14G21   29.66F FOG     WCI  32
BURLINGTON     CLOUDY    37  37  98 E13       29.61F FOG     WCI  29
KENOSHA        LGT RAIN  40  38  93 SE13      29.63F FOG     WCI  32
FOND DU LAC    LGT RAIN  39  36  89 SE12      29.65F FOG     WCI  32
SHEBOYGAN      LGT RAIN  39  32  76 SE12G17   29.69F WCI  32
WEST BEND      RAIN      37  36  93 SE9G17    29.65F WCI  31
JUNEAU         CLOUDY    38  37  97 E13       29.63F FOG     WCI  30
$$

LSZ147-162-230600-
LAKE SUPERIOR

STATION/POSITION TIME  TEMP    WIND        PRES    WAVE
                       AIR SEA DIR/SP/G            HT/PER
                 (UTC) (F)     (DEG/KT/KT) (MB)    (FT/S)
DEVILS ISLAND    0500   36      80/ 13/ 13 1009.4R
PORT WING        0400   34      40/ 11/ 13 1007.8
SAXON HARBOR     0400   36        CALM     1007.8S
$$

LMZ867-665-643>646-230600-
LAKE MICHIGAN

STATION/POSITION TIME  TEMP    WIND        PRES    WAVE
                       AIR SEA DIR/SP/G            HT/PER
                 (UTC) (F)     (DEG/KT/KT) (MB)    (FT/S)
CHAMBERS ISLAND  0400   34      70/ 11/ 17 1009.5F
NORTHPORT PIER   0427   35     100/ 19/ 25 1009.8F
SISTER BAY       0443          110/ 14/ 22   N/A
ALGOMA LAKESHORE 0415          130/ 25/ 29   N/A
KEWAUNEE LAKESHO 0400   37     120/ 15/ 22 1006.4F
SHEBOYGAN LAKESH 0500   39 36  120/ 26/ 29 1005.6F
PORT WASHINGTON  0400   40     140/ 16/ 22 1006.1F
MILWAUKEE LAKESH 0500   39     130/ 18/ 21   N/A
KENOSHA   LAKESH 0500   40     140/ 17/ 20 1004.1F
$$

TC  - TEMPERATURE IN CELSIUS
VSB - VISIBILITY IN STATUTE MILES
WCI - WIND CHILL INDEX
HX  - HEAT INDEX




USA.gov is the U.S. government's official web portal to all federal, state and local government web resources and services.